Location: Arbon
(43.0005°N, 0.7472°E)
Time: 17:52:30
(UTC+00:00)

Cosmos 724 - Pass Details

Date: 07 August 2020
Orbit: 856 x 939 km, 65.6° (Epoch: 23 September)

Event Time Altitude Azimuth Distance (km) Brightness Sun altitude
Rises 03:28:18 0° 326° (NNW) 3,516 7.5 -14.3°
Reaches altitude 10° 03:30:47 10° 327° (NNW) 2,585 6.8 -13.9°
Maximum altitude 03:36:49 88° 242° (WSW) 922 4.4 -13.1°
Drops below altitude 10° 03:42:57 10° 150° (SSE) 2,623 6.7 -12.2°
Sets 03:45:29 0° 150° (SSE) 3,571 7.4 -11.8°
